ONEWEB-0059, 45162

Orbit data source: Space-Track

ONEWEB-0059, 45162 is a payload satellite owned by One Web (UK) in LEO that was launched on Thu, 06 Feb 2020 UTC via a SOYUZ-2-1B launch vehicle from the Tyuratam Missile And Space Complex (TTMTR). Payload-class satellites include a variety of spacecraft equipped with specific instruments for various scientific and technological missions. These include communications satellites like Starlink; space stations such as the ISS; scientific satellites like the Hubble; Earth observation satellites from companies like Planet Labs, Umbra, and HawkEye 360; GPS; miniature CubeSats for education and research; and military/defense satellites.

Loading next visibility...
Identifier
45162, 2020-008AH
Orbit
LEO
Last TLE update
23 hours ago
Origin
Manufacturer
One Web
Mission
Operational Commercial Communications
Bus & Motor
ARROW, Unknown motor
Mass
148 kg wet, ~140 kg dry
Launch date (UTC)
2020-02-06 (5 years ago)
Launch vehicle
SOYUZ-2-1B
Launch site
Tyuratam Missile And Space Complex (TTMTR)
Object type
Payload
Rocket body
Debris
Shape & HBR
Trap Box + 2 Pan, 5 m
Radar Cross Section
2.957 m², Large (>1 m²)

Expand to show TLE details & history

TLE from 23 hours ago
0 ONEWEB-0059
1 45162U 20008AH  25185.78060072  .00000250  00000-0  68029-3 0  9994
2 45162  87.8822 105.5695 0002101  80.1326 280.0039 13.10370091262827
Epoch: 2025-07-04T18:44Z
TLE epoch observation values (Epoch: 2025-07-04T18:44:03.902Z)
Latitude
0.00005°
Longitude
-98.47484°
Altitude
1,224.338 km
Speed
7.242 km/s
True Right ascension
07h 02m 16s
True Declination
0° 00' 00"
Sunlit
Object was in daylight at epoch
Visualization orbit readout
Latitude
10.91219°
Longitude
80.92918°
Altitude
1,223.903 km
Speed
7.243 km/s
Apparent Right ascension
18h 24m 35s
Apparent Declination
-12° 16' 03"
Sunlit
Object is in full shadow
Visualization observer readout
Local Sidereal Time
05:30:29
Azimuth
332.908° NNW
Elevation
-59.886°
Doppler factor
1
Orbital elements
Apogee altitude
1,220.444 km
Perigee altitude
1,217.251 km
Semi-major axis
7,596.985 km
Eccentricity
0.00021
Inclination
87.8822°
RAAN
105.5695°
Arg. of periapsis
80.1326°
True anomaly
Unknown
Mean anomaly
280.0039°
Eccentric anomaly
Unknown
Mean motion
3.27779 °/min
Orbital period
109.83 mins
BSTAR
0.00068029
Loading maneuver chart data...
Loading SW <> Apogee altitude chart data...
Loading historical data...
Loading historical data...
Loading historical data...
Loading historical data...
Loading historical data...
Loading historical data...
Loading historical data...

ONEWEB-0059 Visibility forecast

Observer location: undefined°, undefined°

Span
Click to sort rows by Start time (UTC) header in descending order
Start Az.
Max El. time (UTC)
Max El. Az.
Max El.
End time (UTC)
End Az.
13 mins2025-07-05 18:39:06.218Z161.236° S2025-07-05 18:46:06.218Z71.611° E40.614°2025-07-05 18:52:06.218Z9.585° NNE
9 mins2025-07-05 20:32:06.218Z242.141° WSW2025-07-05 20:36:06.218Z282.731° WNW22.389°2025-07-05 20:41:06.218Z330.609° NNW
12 mins2025-07-06 06:10:06.218Z14.899° NNE2025-07-06 06:16:06.218Z90.732° ESE36.633°2025-07-06 06:22:06.218Z154.946° SSE
10 mins2025-07-06 08:01:06.218Z329.28° NNW2025-07-06 08:05:06.218Z286.823° WNW26.678°2025-07-06 08:11:06.218Z226.86° WSW
|